Home > Weather > Mesquite > Past weeks

Flag for USA Weather for the Past 2 Weeks in Mesquite, Texas, USA

Now
61 °F

Scattered clouds.


Feels Like: 61 °F
Forecast: 56 / 66 °F
Wind: 10 mph from Northwest

Location: Mesquite Metro Airport

Current Time: May 2, 2016 at 2:51:49 PM

Latest Report: May 2, 2016 at 1:50 PM


Visibility: 10 mi

Pressure: 30.12 "Hg

Humidity: 68%

Dew Point: 50 °F

Location of MesquiteLocation

Historic Weather in Mesquite — Graph

°F

Mesquite Temperature Yesterday

Maximum temperature yesterday: 73 °F (at 4:50 PM)
Minimum temperature yesterday: 59 °F (at 6:50 AM)
Average temperature yesterday: 65 °F

High & Low Weather Summary for the Past Weeks

 TemperatureHumidityPressure
High84 °F (Apr 27, 3:50 PM)100% (Apr 17, 2:45 PM)30.18 "Hg (Apr 17, 2:45 PM)
Low54 °F (May 2, 6:50 AM)26% (Apr 27, 2:50 PM)29.56 "Hg (Apr 29, 5:50 PM)
Average68 °F79%29.90 "Hg
* Reported Apr 17 1:55 PM — May 2 1:50 PM, Mesquite, Weather by CustomWeather, © 2016

Note: Actual official high and low records may vary slightly from our data, if they occured in-between our weather recording intervals... More about our weather records

Advertising

Mesquite Weather History for the Previous 24 Hours

Scroll right to see more
 ConditionsComfort  
Time TempWeatherWind HumidityBarometerVisibility
1:50 PM
Mon, May 2
61 °FScattered clouds.10 mph68%30.12 "Hg10 mi
12:50 PM63 °FScattered clouds.10 mph68%30.12 "Hg10 mi
11:50 AM61 °FScattered clouds.9 mph72%30.15 "Hg10 mi
10:50 AM57 °FPartly sunny.14 mph82%30.15 "Hg10 mi
9:50 AM55 °FPartly sunny.7 mph88%30.13 "Hg10 mi
8:50 AM54 °FRain. Cloudy.10 mph94%30.15 "Hg5 mi
7:50 AM54 °FThundershowers. Cloudy.12 mph100%30.11 "Hg5 mi
6:50 AM54 °FRain. Mostly cloudy.9 mph100%30.11 "Hg2 mi
6:15 AM54 °FOvercast.17 mph97%30.08 "Hg5 mi
5:55 AM55 °FMostly cloudy.16 mph94%30.09 "Hg10 mi
5:35 AM56 °FMostly cloudy.13 mph91%30.09 "Hg10 mi
5:15 AM57 °FMostly cloudy.16 mph87%30.09 "Hg10 mi
4:35 AM59 °FMostly cloudy.14 mph74%30.02 "Hg10 mi
4:15 AM59 °FOvercast.16 mph71%30.03 "Hg10 mi
3:55 AM60 °FOvercast.15 mph70%30.04 "Hg10 mi
3:35 AM61 °FOvercast.10 mph68%30.04 "Hg10 mi
3:15 AM61 °FOvercast.13 mph65%30.03 "Hg10 mi
2:55 AM62 °FOvercast.7 mph67%30.02 "Hg10 mi
2:15 AM62 °FOvercast.14 mph64%30.06 "Hg10 mi
1:35 AM62 °FPassing clouds.12 mph62%30.07 "Hg10 mi
1:15 AM62 °FPassing clouds.13 mph60%30.07 "Hg10 mi
12:21 AM63 °FPassing clouds.10 mph59%30.06 "Hg10 mi
11:55 PM
Sun, May 1
64 °FClear.10 mph59%30.05 "Hg10 mi
11:35 PM64 °FClear.13 mph57%30.05 "Hg10 mi
11:15 PM64 °FClear.13 mph59%30.05 "Hg10 mi
10:35 PM65 °FClear.13 mph58%30.04 "Hg10 mi
9:55 PM66 °FClear.10 mph56%30.03 "Hg10 mi
9:35 PM66 °FPassing clouds.12 mph56%30.02 "Hg10 mi
8:55 PM68 °FMostly cloudy.10 mph55%30.00 "Hg10 mi
8:15 PM68 °FOvercast.10 mph53%29.98 "Hg10 mi
7:50 PM70 °FPartly sunny.9 mph53%29.97 "Hg10 mi
6:50 PM72 °FSunny.9 mph50%29.95 "Hg10 mi
5:50 PM73 °FSunny.9 mph47%29.94 "Hg10 mi
4:50 PM73 °FSunny.17 mph47%29.94 "Hg10 mi
3:50 PM72 °FSunny.12 mph47%29.98 "Hg10 mi
2:50 PM72 °FSunny.12 mph50%30.00 "Hg10 mi
Weather by CustomWeather, © 2016

See weather overviewHow to use our weather pages